Time,TemperatureF,DewpointF,PressureIn,WindDirection,WindDirectionDegrees,WindSpeedMPH,WindSpeedGustMPH,Humidity,HourlyPrecipIn,Conditions,Clouds,dailyrainin,SolarRadiationWatts/m^2,SoftwareType,DateUTC
2013-02-03 00:00:00,28.0,12.0,-100.00,SSE,162,3.0,4.0,51,-99.99,,,0.00,0.000000,,2013-02-03 07:00:00,
2013-02-03 00:52:00,28.0,12.0,-100.00,SSE,162,3.0,4.0,51,-99.99,,,0.00,0.000000,,2013-02-03 07:52:00,
2013-02-03 01:00:00,28.0,12.0,-100.00,SSE,161,4.0,4.0,52,-99.99,,,0.00,0.000000,,2013-02-03 08:00:00,
2013-02-03 01:52:00,28.0,12.0,-100.00,SSE,161,4.0,4.0,52,-99.99,,,0.00,0.000000,,2013-02-03 08:52:00,
2013-02-03 02:00:00,28.0,11.0,-100.00,SSE,162,3.0,4.0,48,-99.99,,,0.00,0.000000,,2013-02-03 09:00:00,
2013-02-03 02:52:00,28.0,11.0,-100.00,SSE,162,3.0,4.0,48,-99.99,,,0.00,0.000000,,2013-02-03 09:52:00,
2013-02-03 03:00:00,27.0,10.0,-100.00,SSE,163,3.0,4.0,48,-99.99,,,0.00,0.000000,,2013-02-03 10:00:00,
2013-02-03 03:53:00,27.0,10.0,-100.00,SSE,163,3.0,4.0,48,-99.99,,,0.00,0.000000,,2013-02-03 10:53:00,
2013-02-03 04:00:00,27.0,14.0,-100.00,SSE,160,3.0,4.0,58,-99.99,,,-99.99,0.000000,,2013-02-03 11:00:00,
2013-02-03 04:52:00,27.0,14.0,-100.00,SSE,160,3.0,4.0,58,-99.99,,,-99.99,0.000000,,2013-02-03 11:52:00,
2013-02-03 05:00:00,27.0,16.0,-100.00,SSE,159,3.0,4.0,62,-99.99,,,0.00,0.000000,,2013-02-03 12:00:00,
2013-02-03 05:53:00,27.0,16.0,-100.00,SSE,159,3.0,4.0,62,-99.99,,,0.00,0.000000,,2013-02-03 12:53:00,
2013-02-03 06:00:00,28.0,13.0,-100.00,SSE,154,2.0,4.0,53,-99.99,,,0.00,0.000000,,2013-02-03 13:00:00,
2013-02-03 06:52:00,28.0,13.0,-100.00,SSE,154,2.0,4.0,53,-99.99,,,0.00,0.000000,,2013-02-03 13:52:00,
2013-02-03 07:00:00,29.0,13.0,-100.00,SSE,148,2.0,4.0,50,-99.99,,,0.00,0.300000,,2013-02-03 14:00:00,
2013-02-03 07:52:00,29.0,13.0,-100.00,SSE,148,2.0,4.0,50,-99.99,,,0.00,0.300000,,2013-02-03 14:52:00,
2013-02-03 08:00:00,30.0,12.0,-100.00,SSE,150,2.0,4.0,47,-99.99,,,0.00,26.000000,,2013-02-03 15:00:00,
2013-02-03 09:00:00,35.0,10.0,-100.00,SE,133,1.0,5.0,35,-99.99,,,0.00,107.800003,,2013-02-03 16:00:00,
2013-02-03 09:52:00,35.0,10.0,-100.00,SE,133,1.0,5.0,35,-99.99,,,0.00,107.800003,,2013-02-03 16:52:00,
2013-02-03 10:00:00,40.0,2.0,-100.00,ESE,103,1.0,4.0,20,-99.99,,,0.00,169.100006,,2013-02-03 17:00:00,
2013-02-03 10:52:00,40.0,2.0,-100.00,ESE,103,1.0,4.0,20,-99.99,,,0.00,169.100006,,2013-02-03 17:52:00,
2013-02-03 11:00:00,41.0,-3.0,-100.00,NNE,28,1.0,5.0,15,-99.99,,,0.00,241.500000,,2013-02-03 18:00:00,
2013-02-03 11:52:00,41.0,-3.0,-100.00,NNE,28,1.0,5.0,15,-99.99,,,0.00,241.500000,,2013-02-03 18:52:00,
2013-02-03 12:00:00,42.0,-3.0,-100.00,North,6,1.0,5.0,14,-99.99,,,0.00,306.500000,,2013-02-03 19:00:00,
2013-02-03 12:52:00,42.0,-3.0,-100.00,North,6,1.0,5.0,14,-99.99,,,0.00,306.500000,,2013-02-03 19:52:00,
2013-02-03 13:00:00,42.0,5.0,-100.00,NNE,20,2.0,6.0,21,-99.99,,,0.00,362.899994,,2013-02-03 20:00:00,
2013-02-03 13:52:00,42.0,5.0,-100.00,NNE,20,2.0,6.0,21,-99.99,,,0.00,362.899994,,2013-02-03 20:52:00,
2013-02-03 14:00:00,40.0,8.0,-100.00,NNE,14,1.0,5.0,27,-99.99,,,0.00,273.200012,,2013-02-03 21:00:00,
2013-02-03 14:52:00,40.0,8.0,-100.00,NNE,14,1.0,5.0,27,-99.99,,,0.00,273.200012,,2013-02-03 21:52:00,
2013-02-03 15:00:00,39.0,14.0,-100.00,North,354,1.0,4.0,35,-99.99,,,0.00,190.800003,,2013-02-03 22:00:00,
2013-02-03 15:52:00,39.0,14.0,-100.00,North,354,1.0,4.0,35,-99.99,,,0.00,190.800003,,2013-02-03 22:52:00,
2013-02-03 16:00:00,36.0,14.0,-100.00,NNE,18,1.0,4.0,40,-99.99,,,0.00,120.599998,,2013-02-03 23:00:00,
2013-02-03 16:52:00,36.0,14.0,-100.00,NNE,18,1.0,4.0,40,-99.99,,,0.00,120.599998,,2013-02-03 23:52:00,
2013-02-03 17:00:00,33.0,13.0,-100.00,NNE,25,2.0,6.0,43,-99.99,,,0.00,57.099998,,2013-02-04 00:00:00,
2013-02-03 17:52:00,33.0,13.0,-100.00,NNE,25,2.0,6.0,43,-99.99,,,0.00,57.099998,,2013-02-04 00:52:00,
2013-02-03 18:00:00,31.0,-99.9,-100.00,North,-999,-999.0,-999.0,-999,-99.99,,,0.00,,,2013-02-04 01:00:00,
2013-02-03 18:52:00,31.0,-99.9,-100.00,North,-999,-999.0,-999.0,-999,-99.99,,,0.00,,,2013-02-04 01:52:00,
2013-02-03 19:00:00,30.0,19.0,-100.00,NE,53,2.0,5.0,62,-99.99,,,0.00,0.000000,,2013-02-04 02:00:00,
2013-02-03 19:52:00,30.0,19.0,-100.00,NE,53,2.0,5.0,62,-99.99,,,0.00,0.000000,,2013-02-04 02:52:00,
2013-02-03 20:00:00,29.0,21.0,-100.00,NE,52,1.0,4.0,70,-99.99,,,0.00,0.000000,,2013-02-04 03:00:00,
2013-02-03 20:52:00,29.0,21.0,-100.00,NE,52,1.0,4.0,70,-99.99,,,0.00,0.000000,,2013-02-04 03:52:00,
2013-02-03 21:00:00,29.0,20.0,-100.00,NE,38,1.0,4.0,70,-99.99,,,0.00,0.000000,,2013-02-04 04:00:00,
2013-02-03 21:52:00,29.0,20.0,-100.00,NE,38,1.0,4.0,70,-99.99,,,0.00,0.000000,,2013-02-04 04:52:00,
2013-02-03 22:00:00,29.0,20.0,-100.00,NE,53,1.0,4.0,68,-99.99,,,0.00,0.000000,,2013-02-04 05:00:00,
2013-02-03 22:52:00,29.0,20.0,-100.00,NE,53,1.0,4.0,68,-99.99,,,0.00,0.000000,,2013-02-04 05:52:00,
2013-02-03 23:00:00,28.0,-99.9,-100.00,North,-999,-999.0,-999.0,-999,-99.99,,,0.00,,,2013-02-04 06:00:00,
2013-02-03 23:52:00,28.0,-99.9,-100.00,North,-999,-999.0,-999.0,-999,-99.99,,,0.00,,,2013-02-04 06:52:00,